User: anonymous   Login
Location: Bijele Vode
(45.2833°N, 16.2000°E)
Time: 15:50:16
(UTC+00:00)
Language:

KAITUO 1B - Orbit

View from above orbital plane
View from above orbital plane
View from above satellite
View from above satellite

Ground track
Ground track

The orbit data is extracted from the following two-line orbital elements,

1 40912U 15049P   21332.21221157  .00003031  00000-0  13362-3 0  9992
2 40912  97.4436 340.1606 0012263 292.3434 132.9397 15.22515290343109
Epoch (UTC): 28 November 2021 05:05:35
Eccentricity: 0.0012263
inclination: 97.4436°
perigee height: 490 km
apogee height: 506 km
right ascension of ascending node: 340.1606°
argument of perigee: 292.3434°
revolutions per day: 15.22515290
mean anomaly at epoch: 132.9397°
orbit number at epoch: 34310

The dashed part of the orbit path shows where the satellite is in the earth's shadow,  

DLR